| time (UTC) | temp C | wind direction | speed KPH | gust KPH | rain 1hr cm | rain 24hr cm | rain mn cm | humidity % | barometer mb |
| 20260507143804 | 21 | 231 | 22.5 | 32.2 | 0.00 | 0.00 | 0.00 | 40 | 1009.6 |
| 20260507143304 | 21 | 258 | 14.5 | 22.5 | 0.00 | 0.00 | 0.00 | 43 | 1009.4 |
| 20260507142804 | 21 | 230 | 19.3 | 25.7 | 0.00 | 0.00 | 0.00 | 43 | 1009.7 |
| 20260507141304 | 21 | 217 | 20.9 | 32.2 | 0.00 | 0.00 | 0.00 | 47 | 1009.7 |
| 20260507140804 | 20 | 231 | 20.9 | 25.7 | 0.00 | 0.00 | 0.00 | 48 | 1009.8 |
| 20260507140304 | 20 | 229 | 19.3 | 25.7 | 0.00 | 0.00 | 0.00 | 48 | 1009.8 |
| 20260507135804 | 20 | 232 | 19.3 | 24.1 | 0.00 | 0.00 | 0.00 | 47 | 1009.7 |
| 20260507135306 | 21 | 236 | 24.1 | 29.0 | 0.00 | 0.00 | 0.00 | 47 | 1009.9 |
| 20260507134804 | 21 | 254 | 16.1 | 22.5 | 0.00 | 0.00 | 0.00 | 46 | 1009.9 |
| 20260507134304 | 21 | 238 | 19.3 | 27.4 | 0.00 | 0.00 | 0.00 | 47 | 1009.9 |
| 20260507133303 | 20 | 200 | 17.7 | 27.4 | 0.00 | 0.00 | 0.00 | 49 | 1010.0 |
| 20260507132804 | 21 | 202 | 16.1 | 32.2 | 0.00 | 0.00 | 0.00 | 49 | 1010.4 |
| 20260507132307 | 21 | 235 | 16.1 | 24.1 | 0.00 | 0.00 | 0.00 | 48 | 1009.9 |
| 20260507131804 | 20 | 235 | 17.7 | 27.4 | 0.00 | 0.00 | 0.00 | 48 | 1010.1 |
| 20260507131304 | 20 | 229 | 19.3 | 27.4 | 0.00 | 0.00 | 0.00 | 47 | 1010.2 |
| 20260507130804 | 20 | 222 | 17.7 | 27.4 | 0.00 | 0.00 | 0.00 | 50 | 1010.4 |
| 20260507130304 | 20 | 209 | 19.3 | 29.0 | 0.00 | 0.00 | 0.00 | 48 | 1010.2 |
| 20260507125804 | 20 | 229 | 14.5 | 22.5 | 0.00 | 0.00 | 0.00 | 50 | 1010.4 |
| 20260507125306 | 20 | 205 | 17.7 | 25.7 | 0.00 | 0.00 | 0.00 | 48 | 1010.3 |
| 20260507124804 | 20 | 234 | 19.3 | 27.4 | 0.00 | 0.00 | 0.00 | 48 | 1010.5 |
| 20260507124303 | 20 | 209 | 14.5 | 22.5 | 0.00 | 0.00 | 0.00 | 49 | 1010.5 |
| 20260507122804 | 20 | 191 | 20.9 | 27.4 | 0.00 | 0.00 | 0.00 | 49 | 1010.6 |
| 20260507121803 | 20 | 204 | 22.5 | 33.8 | 0.00 | 0.00 | 0.00 | 51 | 1010.5 |
| 20260507121304 | 20 | 232 | 17.7 | 32.2 | 0.00 | 0.00 | 0.00 | 51 | 1010.6 |
| 20260507120804 | 20 | 202 | 19.3 | 33.8 | 0.00 | 0.00 | 0.00 | 52 | 1010.9 |
| 20260507120304 | 20 | 219 | 16.1 | 33.8 | 0.00 | 0.00 | 0.00 | 52 | 1010.6 |
| 20260507115804 | 21 | 195 | 19.3 | 25.7 | 0.00 | 0.00 | 0.00 | 50 | 1010.8 |
| 20260507115307 | 20 | 188 | 19.3 | 27.4 | 0.00 | 0.00 | 0.00 | 52 | 1010.8 |
| 20260507114804 | 20 | 199 | 19.3 | 25.7 | 0.00 | 0.00 | 0.00 | 52 | 1010.7 |
| 20260507114304 | 20 | 190 | 16.1 | 25.7 | 0.00 | 0.00 | 0.00 | 51 | 1010.6 |
| 20260507113804 | 20 | 212 | 17.7 | 27.4 | 0.00 | 0.00 | 0.00 | 52 | 1010.9 |
| 20260507113304 | 21 | 230 | 17.7 | 22.5 | 0.00 | 0.00 | 0.00 | 50 | 1011.0 |
| 20260507112804 | 20 | 186 | 17.7 | 27.4 | 0.00 | 0.00 | 0.00 | 53 | 1011.0 |
| 20260507112306 | 20 | 200 | 16.1 | 27.4 | 0.00 | 0.00 | 0.00 | 53 | 1010.9 |
| 20260507111804 | 20 | 189 | 19.3 | 27.4 | 0.00 | 0.00 | 0.00 | 54 | 1011.0 |
| 20260507111304 | 20 | 195 | 14.5 | 20.9 | 0.00 | 0.00 | 0.00 | 53 | 1011.0 |
| 20260507110804 | 20 | 192 | 20.9 | 27.4 | 0.00 | 0.00 | 0.00 | 53 | 1010.9 |
| 20260507110304 | 20 | 233 | 16.1 | 32.2 | 0.00 | 0.00 | 0.00 | 52 | 1010.9 |
| 20260507105805 | 19 | 194 | 17.7 | 22.5 | 0.00 | 0.00 | 0.00 | 54 | 1011.1 |
| 20260507105306 | 19 | 198 | 19.3 | 24.1 | 0.00 | 0.00 | 0.00 | 54 | 1011.1 |
| 20260507104804 | 19 | 199 | 19.3 | 25.7 | 0.00 | 0.00 | 0.00 | 55 | 1011.3 |
| 20260507104305 | 19 | 204 | 11.3 | 22.5 | 0.00 | 0.00 | 0.00 | 58 | 1010.9 |
| 20260507103804 | 19 | 206 | 16.1 | 25.7 | 0.00 | 0.00 | 0.00 | 57 | 1011.1 |
| 20260507103304 | 20 | 185 | 16.1 | 25.7 | 0.00 | 0.00 | 0.00 | 55 | 1011.0 |
| 20260507102306 | 19 | 208 | 19.3 | 25.7 | 0.00 | 0.00 | 0.00 | 58 | 1011.2 |
| 20260507101804 | 18 | 195 | 14.5 | 24.1 | 0.00 | 0.00 | 0.00 | 59 | 1011.2 |
| 20260507101304 | 18 | 212 | 19.3 | 22.5 | 0.00 | 0.00 | 0.00 | 59 | 1011.1 |
| 20260507100804 | 18 | 213 | 17.7 | 25.7 | 0.00 | 0.00 | 0.00 | 58 | 1011.3 |
| 20260507100305 | 18 | 181 | 14.5 | 20.9 | 0.00 | 0.00 | 0.00 | 60 | 1011.2 |
| 20260507095804 | 18 | 175 | 11.3 | 19.3 | 0.00 | 0.00 | 0.00 | 60 | 1011.1 |
| 20260507094804 | 18 | 188 | 14.5 | 24.1 | 0.00 | 0.00 | 0.00 | 61 | 1011.3 |
| 20260507094304 | 17 | 195 | 11.3 | 22.5 | 0.00 | 0.00 | 0.00 | 62 | 1011.4 |
| 20260507093805 | 18 | 195 | 19.3 | 25.7 | 0.00 | 0.00 | 0.00 | 63 | 1011.2 |
| 20260507093304 | 18 | 212 | 19.3 | 24.1 | 0.00 | 0.00 | 0.00 | 64 | 1011.3 |
| 20260507092804 | 18 | 209 | 17.7 | 24.1 | 0.00 | 0.00 | 0.00 | 62 | 1011.3 |
| 20260507092307 | 18 | 185 | 16.1 | 27.4 | 0.00 | 0.00 | 0.00 | 63 | 1011.2 |
| 20260507091804 | 18 | 200 | 20.9 | 25.7 | 0.00 | 0.00 | 0.00 | 63 | 1011.3 |
| 20260507091304 | 17 | 175 | 16.1 | 20.9 | 0.00 | 0.00 | 0.00 | 66 | 1011.2 |
| 20260507090804 | 17 | 190 | 16.1 | 22.5 | 0.00 | 0.00 | 0.00 | 66 | 1011.2 |
| 20260507090304 | 17 | 194 | 14.5 | 24.1 | 0.00 | 0.00 | 0.00 | 67 | 1011.4 |
| 20260507085804 | 17 | 171 | 14.5 | 20.9 | 0.00 | 0.00 | 0.00 | 67 | 1011.3 |
| 20260507085306 | 17 | 192 | 14.5 | 25.7 | 0.00 | 0.00 | 0.00 | 67 | 1011.2 |
| 20260507084804 | 18 | 153 | 16.1 | 25.7 | 0.00 | 0.00 | 0.00 | 66 | 1011.2 |
| 20260507084304 | 17 | 195 | 11.3 | 20.9 | 0.00 | 0.00 | 0.00 | 68 | 1011.1 |
| 20260507083304 | 17 | 185 | 14.5 | 24.1 | 0.00 | 0.00 | 0.00 | 70 | 1011.3 |
| 20260507082804 | 17 | 170 | 11.3 | 20.9 | 0.00 | 0.00 | 0.00 | 71 | 1011.0 |
| 20260507082306 | 17 | 189 | 16.1 | 22.5 | 0.00 | 0.00 | 0.00 | 70 | 1011.3 |
| 20260507081804 | 16 | 164 | 11.3 | 20.9 | 0.00 | 0.00 | 0.00 | 71 | 1011.1 |
| 20260507080804 | 16 | 177 | 11.3 | 14.5 | 0.00 | 0.00 | 0.00 | 73 | 1011.0 |
| 20260507080304 | 16 | 172 | 12.9 | 19.3 | 0.00 | 0.00 | 0.00 | 74 | 1011.0 |
| 20260507075804 | 16 | 176 | 14.5 | 19.3 | 0.00 | 0.00 | 0.00 | 73 | 1011.1 |
| 20260507075307 | 15 | 175 | 12.9 | 22.5 | 0.00 | 0.00 | 0.00 | 74 | 1011.2 |
| 20260507074804 | 15 | 179 | 12.9 | 20.9 | 0.00 | 0.00 | 0.00 | 73 | 1010.9 |
| 20260507074304 | 15 | 150 | 12.9 | 20.9 | 0.00 | 0.00 | 0.00 | 73 | 1011.0 |
| 20260507073804 | 15 | 175 | 11.3 | 14.5 | 0.00 | 0.00 | 0.00 | 73 | 1010.9 |
| 20260507073304 | 15 | 165 | 9.7 | 14.5 | 0.00 | 0.00 | 0.00 | 74 | 1010.8 |
| 20260507072804 | 15 | 139 | 8.0 | 14.5 | 0.00 | 0.00 | 0.00 | 75 | 1010.8 |
| 20260507071803 | 15 | 120 | 9.7 | 16.1 | 0.00 | 0.00 | 0.00 | 76 | 1010.7 |
| 20260507071304 | 15 | 123 | 4.8 | 16.1 | 0.00 | 0.00 | 0.00 | 76 | 1010.6 |
| 20260507070803 | 15 | 178 | 4.8 | 12.9 | 0.00 | 0.00 | 0.00 | 75 | 1010.5 |
| 20260507070304 | 15 | 152 | 8.0 | 11.3 | 0.00 | 0.00 | 0.00 | 74 | 1010.6 |
| 20260507065804 | 14 | 129 | 8.0 | 14.5 | 0.00 | 0.00 | 0.00 | 75 | 1010.6 |
| 20260507065306 | 14 | 97 | 9.7 | 14.5 | 0.00 | 0.00 | 0.00 | 76 | 1010.4 |
| 20260507064804 | 14 | 141 | 8.0 | 14.5 | 0.00 | 0.00 | 0.00 | 76 | 1010.4 |
| 20260507064304 | 14 | 119 | 4.8 | 12.9 | 0.00 | 0.00 | 0.00 | 76 | 1010.5 |
| 20260507063804 | 14 | 71 | 4.8 | 11.3 | 0.00 | 0.00 | 0.00 | 77 | 1010.6 |
| 20260507063304 | 13 | 111 | 8.0 | 12.9 | 0.00 | 0.00 | 0.00 | 77 | 1010.5 |
| 20260507062804 | 13 | 68 | 8.0 | 14.5 | 0.00 | 0.00 | 0.00 | 78 | 1010.5 |
| 20260507062306 | 13 | 72 | 8.0 | 12.9 | 0.00 | 0.00 | 0.00 | 79 | 1010.5 |
| 20260507061804 | 13 | 57 | 9.7 | 12.9 | 0.00 | 0.00 | 0.00 | 80 | 1010.4 |
| 20260507060803 | 13 | 63 | 4.8 | 9.7 | 0.00 | 0.00 | 0.00 | 79 | 1010.4 |
| 20260507060304 | 13 | 31 | 9.7 | 12.9 | 0.00 | 0.00 | 0.00 | 79 | 1010.2 |
| 20260507055804 | 13 | 37 | 8.0 | 11.3 | 0.00 | 0.00 | 0.00 | 80 | 1010.0 |
| 20260507055306 | 13 | 35 | 8.0 | 12.9 | 0.00 | 0.00 | 0.00 | 80 | 1010.0 |
| 20260507054804 | 12 | 38 | 9.7 | 11.3 | 0.00 | 0.00 | 0.00 | 81 | 1009.9 |
| 20260507054303 | 12 | 61 | 9.7 | 11.3 | 0.00 | 0.00 | 0.00 | 81 | 1009.7 |
| 20260507053804 | 12 | 53 | 8.0 | 9.7 | 0.00 | 0.00 | 0.00 | 81 | 1010.0 |
| 20260507052804 | 12 | 72 | 3.2 | 4.8 | 0.00 | 0.00 | 0.00 | 81 | 1009.9 |
| 20260507052306 | 12 | 103 | 3.2 | 4.8 | 0.00 | 0.00 | 0.00 | 81 | 1009.9 |
| 20260507051804 | 12 | 198 | 3.2 | 4.8 | 0.00 | 0.00 | 0.00 | 81 | 1010.0 |
| 20260507051304 | 12 | 227 | 1.6 | 3.2 | 0.00 | 0.00 | 0.00 | 82 | 1009.9 |
| 20260507050804 | 12 | 262 | 1.6 | 4.8 | 0.00 | 0.00 | 0.00 | 82 | 1009.8 |
| 20260507050304 | 12 | 180 | 3.2 | 4.8 | 0.00 | 0.00 | 0.00 | 82 | 1009.9 |
| 20260507045804 | 12 | 250 | 3.2 | 4.8 | 0.00 | 0.00 | 0.00 | 82 | 1010.0 |
| 20260507045306 | 12 | 8 | 1.6 | 4.8 | 0.00 | 0.00 | 0.00 | 82 | 1009.8 |
| 20260507043804 | 12 | 153 | 3.2 | 4.8 | 0.00 | 0.00 | 0.00 | 82 | 1009.8 |
| 20260507042804 | 12 | 52 | 3.2 | 8.0 | 0.00 | 0.00 | 0.00 | 82 | 1009.6 |
| 20260507042306 | 12 | 215 | 3.2 | 8.0 | 0.00 | 0.00 | 0.00 | 81 | 1009.5 |
| 20260507041804 | 13 | 135 | 3.2 | 8.0 | 0.00 | 0.00 | 0.00 | 81 | 1009.4 |
| 20260507041305 | 13 | 235 | 3.2 | 8.0 | 0.00 | 0.00 | 0.00 | 80 | 1009.5 |
| 20260507040804 | 13 | 202 | 3.2 | 8.0 | 0.00 | 0.00 | 0.00 | 79 | 1009.3 |
| 20260507040304 | 13 | 158 | 3.2 | 9.7 | 0.00 | 0.00 | 0.00 | 79 | 1009.4 |
| 20260507035804 | 13 | 199 | 4.8 | 9.7 | 0.00 | 0.00 | 0.00 | 79 | 1009.4 |
| 20260507035306 | 13 | 181 | 3.2 | 4.8 | 0.00 | 0.00 | 0.00 | 79 | 1009.4 |
| 20260507034804 | 13 | 180 | 3.2 | 4.8 | 0.00 | 0.00 | 0.00 | 79 | 1009.5 |
| 20260507034304 | 13 | 183 | 3.2 | 4.8 | 0.00 | 0.00 | 0.00 | 79 | 1009.5 |
| 20260507033803 | 13 | 137 | 1.6 | 3.2 | 0.00 | 0.00 | 0.00 | 79 | 1009.4 |
| 20260507033304 | 13 | 156 | 1.6 | 3.2 | 0.00 | 0.00 | 0.00 | 79 | 1009.2 |
| 20260507032804 | 13 | 202 | 1.6 | 4.8 | 0.00 | 0.00 | 0.00 | 79 | 1009.3 |
| 20260507032306 | 13 | 260 | 1.6 | 4.8 | 0.00 | 0.00 | 0.00 | 79 | 1009.4 |
| 20260507031804 | 13 | 200 | 1.6 | 4.8 | 0.00 | 0.00 | 0.00 | 78 | 1009.4 |
| 20260507031304 | 13 | 204 | 1.6 | 3.2 | 0.00 | 0.00 | 0.00 | 78 | 1009.4 |
| 20260507030804 | 13 | 186 | 1.6 | 4.8 | 0.00 | 0.00 | 0.00 | 77 | 1009.4 |
| 20260507025804 | 13 | 44 | 0.0 | 3.2 | 0.00 | 0.00 | 0.00 | 77 | 1009.2 |
| 20260507025306 | 13 | 84 | 1.6 | 3.2 | 0.00 | 0.00 | 0.00 | 77 | 1009.3 |
| 20260507024804 | 13 | 120 | 1.6 | 4.8 | 0.00 | 0.00 | 0.00 | 77 | 1009.2 |
| 20260507024304 | 13 | 159 | 3.2 | 8.0 | 0.00 | 0.00 | 0.00 | 76 | 1009.1 |
| 20260507023303 | 13 | 145 | 3.2 | 8.0 | 0.00 | 0.00 | 0.00 | 76 | 1009.1 |
| 20260507022804 | 13 | 164 | 4.8 | 4.8 | 0.00 | 0.00 | 0.00 | 75 | 1009.0 |
| 20260507022306 | 13 | 135 | 1.6 | 4.8 | 0.00 | 0.00 | 0.00 | 75 | 1009.1 |
| 20260507021804 | 13 | 145 | 3.2 | 4.8 | 0.00 | 0.00 | 0.00 | 75 | 1009.0 |
| 20260507021304 | 13 | 101 | 3.2 | 8.0 | 0.00 | 0.00 | 0.00 | 75 | 1009.0 |
| 20260507020804 | 13 | 162 | 3.2 | 4.8 | 0.00 | 0.00 | 0.00 | 75 | 1009.0 |
| 20260507020304 | 13 | 177 | 3.2 | 8.0 | 0.00 | 0.00 | 0.00 | 75 | 1009.1 |
| 20260507015804 | 13 | 165 | 4.8 | 8.0 | 0.00 | 0.00 | 0.00 | 75 | 1009.2 |
| 20260507014804 | 13 | 166 | 8.0 | 11.3 | 0.00 | 0.00 | 0.00 | 76 | 1009.1 |
| 20260507014304 | 13 | 174 | 4.8 | 11.3 | 0.00 | 0.00 | 0.00 | 76 | 1009.3 |
| 20260507013804 | 13 | 161 | 3.2 | 8.0 | 0.00 | 0.00 | 0.00 | 76 | 1009.1 |
| 20260507013304 | 13 | 174 | 1.6 | 4.8 | 0.00 | 0.00 | 0.00 | 76 | 1009.3 |
| 20260507012804 | 13 | 158 | 3.2 | 4.8 | 0.00 | 0.00 | 0.00 | 76 | 1009.3 |
| 20260507012306 | 13 | 185 | 3.2 | 4.8 | 0.00 | 0.00 | 0.00 | 76 | 1009.5 |
| 20260507010804 | 13 | 164 | 3.2 | 4.8 | 0.00 | 0.00 | 0.00 | 75 | 1009.5 |
| 20260507010304 | 13 | 285 | 0.0 | 1.6 | 0.00 | 0.00 | 0.00 | 75 | 1009.5 |
| 20260507005804 | 13 | 35 | 1.6 | 3.2 | 0.00 | 0.00 | 0.00 | 75 | 1009.6 |
| 20260507005305 | 13 | 18 | 1.6 | 3.2 | 0.00 | 0.00 | 0.00 | 76 | 1009.7 |
| 20260507004804 | 13 | 167 | 0.0 | 3.2 | 0.00 | 0.00 | 0.00 | 76 | 1009.6 |
| 20260507004304 | 13 | 225 | 1.6 | 3.2 | 0.00 | 0.00 | 0.00 | 76 | 1009.6 |
| 20260507003804 | 13 | 238 | 1.6 | 3.2 | 0.00 | 0.00 | 0.00 | 75 | 1009.5 |
| 20260507003303 | 13 | 198 | 3.2 | 8.0 | 0.00 | 0.00 | 0.00 | 75 | 1009.8 |
| 20260507002803 | 13 | 189 | 4.8 | 9.7 | 0.00 | 0.00 | 0.00 | 75 | 1009.7 |
| 20260507002306 | 13 | 176 | 4.8 | 4.8 | 0.00 | 0.00 | 0.00 | 75 | 1009.9 |
| 20260507001804 | 13 | 187 | 1.6 | 4.8 | 0.00 | 0.00 | 0.00 | 75 | 1009.8 |
| 20260507001304 | 13 | 148 | 0.0 | 3.2 | 0.00 | 0.00 | 0.00 | 75 | 1009.9 |
| 20260507000803 | 13 | 257 | 1.6 | 3.2 | 0.00 | 0.00 | 0.00 | 75 | 1009.9 |
| 20260507000306 | 13 | 172 | 3.2 | 9.7 | 0.00 | 0.00 | 0.00 | 75 | 1010.0 |
| 20260506235306 | 13 | 169 | 4.8 | 8.0 | 0.00 | 0.00 | 0.00 | 76 | 1009.8 |
| 20260506234804 | 13 | 174 | 3.2 | 4.8 | 0.00 | 0.00 | 0.00 | 76 | 1009.9 |
| 20260506234304 | 13 | 181 | 3.2 | 4.8 | 0.00 | 0.00 | 0.00 | 76 | 1010.1 |
| 20260506233303 | 13 | 181 | 4.8 | 4.8 | 0.00 | 0.00 | 0.00 | 76 | 1010.2 |
| 20260506232306 | 13 | 208 | 1.6 | 4.8 | 0.00 | 0.00 | 0.00 | 75 | 1010.4 |
| 20260506231304 | 13 | 151 | 1.6 | 3.2 | 0.00 | 0.00 | 0.00 | 74 | 1010.1 |
| 20260506230804 | 13 | 324 | 0.0 | 1.6 | 0.00 | 0.00 | 0.00 | 74 | 1010.0 |
| 20260506230304 | 13 | 271 | 1.6 | 3.2 | 0.00 | 0.00 | 0.00 | 73 | 1010.1 |
| 20260506225804 | 13 | 247 | 3.2 | 8.0 | 0.00 | 0.00 | 0.00 | 73 | 1010.2 |
| 20260506225306 | 13 | 216 | 4.8 | 8.0 | 0.00 | 0.00 | 0.00 | 72 | 1010.2 |
| 20260506224804 | 13 | 241 | 4.8 | 8.0 | 0.00 | 0.00 | 0.00 | 73 | 1010.3 |
| 20260506223805 | 14 | 212 | 3.2 | 8.0 | 0.00 | 0.00 | 0.00 | 71 | 1010.2 |
| 20260506223304 | 14 | 219 | 4.8 | 8.0 | 0.00 | 0.00 | 0.00 | 69 | 1010.0 |
| 20260506222804 | 14 | 188 | 4.8 | 9.7 | 0.00 | 0.00 | 0.00 | 68 | 1010.3 |
| 20260506222306 | 14 | 190 | 8.0 | 9.7 | 0.00 | 0.00 | 0.00 | 67 | 1010.1 |
| 20260506221305 | 13 | 194 | 6.4 | 8.0 | 0.00 | 0.00 | 0.00 | 67 | 1010.0 |
| 20260506220305 | 14 | 216 | 4.8 | 9.7 | 0.00 | 0.00 | 0.00 | 65 | 1010.0 |
| 20260506215804 | 15 | 213 | 6.4 | 9.7 | 0.00 | 0.00 | 0.00 | 63 | 1010.0 |
| 20260506215306 | 14 | 199 | 6.4 | 9.7 | 0.00 | 0.00 | 0.00 | 63 | 1010.0 |
| 20260506214304 | 15 | 238 | 4.8 | 9.7 | 0.00 | 0.00 | 0.00 | 60 | 1010.1 |
| 20260506213805 | 15 | 224 | 6.4 | 9.7 | 0.00 | 0.00 | 0.00 | 59 | 1010.2 |
| 20260506213304 | 16 | 251 | 4.8 | 8.0 | 0.00 | 0.00 | 0.00 | 57 | 1009.9 |
| 20260506212805 | 16 | 228 | 4.8 | 8.0 | 0.00 | 0.00 | 0.00 | 56 | 1009.8 |
| 20260506212306 | 16 | 255 | 4.8 | 8.0 | 0.00 | 0.00 | 0.00 | 56 | 1009.8 |
| 20260506211304 | 17 | 275 | 8.0 | 12.9 | 0.00 | 0.00 | 0.00 | 54 | 1009.7 |
| 20260506210804 | 17 | 276 | 8.0 | 14.5 | 0.00 | 0.00 | 0.00 | 54 | 1009.6 |
| 20260506210304 | 17 | 276 | 8.0 | 11.3 | 0.00 | 0.00 | 0.00 | 54 | 1009.5 |
| 20260506205804 | 17 | 271 | 4.8 | 9.7 | 0.00 | 0.00 | 0.00 | 54 | 1009.7 |
| 20260506205306 | 17 | 276 | 8.0 | 12.9 | 0.00 | 0.00 | 0.00 | 53 | 1009.5 |
| 20260506204305 | 17 | 282 | 14.5 | 19.3 | 0.00 | 0.00 | 0.00 | 53 | 1009.4 |
| 20260506203804 | 17 | 278 | 8.0 | 12.9 | 0.00 | 0.00 | 0.00 | 52 | 1009.3 |
| 20260506203304 | 17 | 279 | 9.7 | 11.3 | 0.00 | 0.00 | 0.00 | 52 | 1009.3 |
| 20260506202804 | 17 | 259 | 9.7 | 12.9 | 0.00 | 0.00 | 0.00 | 51 | 1009.4 |
| 20260506202306 | 17 | 265 | 11.3 | 14.5 | 0.00 | 0.00 | 0.00 | 51 | 1009.4 |
| 20260506201804 | 17 | 261 | 8.0 | 14.5 | 0.00 | 0.00 | 0.00 | 51 | 1009.2 |
| 20260506201304 | 17 | 260 | 4.8 | 9.7 | 0.00 | 0.00 | 0.00 | 51 | 1009.3 |
| 20260506200805 | 17 | 258 | 8.0 | 11.3 | 0.00 | 0.00 | 0.00 | 51 | 1009.3 |
| 20260506200304 | 18 | 250 | 8.0 | 11.3 | 0.00 | 0.00 | 0.00 | 51 | 1009.1 |
| 20260506195804 | 17 | 253 | 4.8 | 8.0 | 0.00 | 0.00 | 0.00 | 51 | 1009.1 |
| 20260506195306 | 18 | 255 | 6.4 | 9.7 | 0.00 | 0.00 | 0.00 | 50 | 1009.1 |
| 20260506194804 | 18 | 259 | 4.8 | 9.7 | 0.00 | 0.00 | 0.00 | 48 | 1009.1 |
| 20260506194304 | 18 | 253 | 9.7 | 12.9 | 0.00 | 0.00 | 0.00 | 48 | 1008.8 |
| 20260506193804 | 18 | 268 | 8.0 | 14.5 | 0.00 | 0.00 | 0.00 | 47 | 1008.9 |
| 20260506193304 | 19 | 256 | 11.3 | 16.1 | 0.00 | 0.00 | 0.00 | 46 | 1008.8 |
| 20260506192804 | 19 | 264 | 11.3 | 16.1 | 0.00 | 0.00 | 0.00 | 46 | 1008.8 |
| 20260506192305 | 19 | 258 | 11.3 | 14.5 | 0.00 | 0.00 | 0.00 | 46 | 1008.8 |
| 20260506191804 | 19 | 260 | 11.3 | 14.5 | 0.00 | 0.00 | 0.00 | 46 | 1008.8 |
| 20260506191304 | 20 | 265 | 9.7 | 14.5 | 0.00 | 0.00 | 0.00 | 46 | 1008.7 |
| 20260506190804 | 20 | 257 | 9.7 | 19.3 | 0.00 | 0.00 | 0.00 | 46 | 1008.6 |
| 20260506190304 | 20 | 247 | 9.7 | 16.1 | 0.00 | 0.00 | 0.00 | 46 | 1008.5 |
| 20260506185804 | 20 | 249 | 14.5 | 20.9 | 0.00 | 0.00 | 0.00 | 45 | 1008.6 |
| 20260506185306 | 20 | 257 | 16.1 | 22.5 | 0.00 | 0.00 | 0.00 | 44 | 1008.5 |
| 20260506184304 | 21 | 261 | 14.5 | 24.1 | 0.00 | 0.00 | 0.00 | 43 | 1008.5 |
| 20260506183804 | 21 | 253 | 14.5 | 20.9 | 0.00 | 0.00 | 0.00 | 42 | 1008.5 |
| 20260506183304 | 21 | 259 | 16.1 | 22.5 | 0.00 | 0.00 | 0.00 | 42 | 1008.5 |
| 20260506182804 | 21 | 255 | 16.1 | 24.1 | 0.00 | 0.00 | 0.00 | 42 | 1008.5 |
| 20260506182306 | 21 | 273 | 16.1 | 25.7 | 0.00 | 0.00 | 0.00 | 41 | 1008.5 |
| 20260506181804 | 21 | 253 | 16.1 | 22.5 | 0.00 | 0.00 | 0.00 | 41 | 1008.3 |
| 20260506181304 | 21 | 248 | 19.3 | 27.4 | 0.00 | 0.00 | 0.00 | 40 | 1008.4 |
| 20260506180804 | 21 | 241 | 12.9 | 19.3 | 0.00 | 0.00 | 0.00 | 40 | 1008.5 |
| 20260506180304 | 21 | 254 | 16.1 | 20.9 | 0.00 | 0.00 | 0.00 | 41 | 1008.4 |
| 20260506175804 | 22 | 248 | 16.1 | 24.1 | 0.00 | 0.00 | 0.00 | 40 | 1008.4 |
| 20260506175306 | 22 | 232 | 16.1 | 22.5 | 0.00 | 0.00 | 0.00 | 39 | 1008.4 |
| 20260506174804 | 22 | 251 | 16.1 | 25.7 | 0.00 | 0.00 | 0.00 | 38 | 1008.5 |
| 20260506174303 | 22 | 224 | 17.7 | 22.5 | 0.00 | 0.00 | 0.00 | 38 | 1008.5 |
| 20260506173803 | 22 | 235 | 19.3 | 24.1 | 0.00 | 0.00 | 0.00 | 37 | 1008.6 |
| 20260506173304 | 22 | 231 | 14.5 | 24.1 | 0.00 | 0.00 | 0.00 | 36 | 1008.5 |
| 20260506172306 | 22 | 210 | 16.1 | 25.7 | 0.00 | 0.00 | 0.00 | 36 | 1008.5 |
| 20260506171804 | 22 | 217 | 14.5 | 22.5 | 0.00 | 0.00 | 0.00 | 36 | 1008.8 |
| 20260506171303 | 22 | 204 | 19.3 | 24.1 | 0.00 | 0.00 | 0.00 | 36 | 1008.7 |
| 20260506170805 | 22 | 241 | 14.5 | 22.5 | 0.00 | 0.00 | 0.00 | 36 | 1008.7 |
| 20260506170304 | 22 | 239 | 17.7 | 25.7 | 0.00 | 0.00 | 0.00 | 36 | 1008.7 |
| 20260506165805 | 22 | 233 | 19.3 | 27.4 | 0.00 | 0.00 | 0.00 | 36 | 1008.7 |
| 20260506165305 | 22 | 248 | 14.5 | 27.4 | 0.00 | 0.00 | 0.00 | 36 | 1008.8 |
| 20260506164304 | 23 | 200 | 16.1 | 27.4 | 0.00 | 0.00 | 0.00 | 36 | 1008.6 |
| 20260506163804 | 23 | 221 | 14.5 | 24.1 | 0.00 | 0.00 | 0.00 | 36 | 1008.8 |
| 20260506163304 | 23 | 205 | 20.9 | 29.0 | 0.00 | 0.00 | 0.00 | 36 | 1008.7 |
| 20260506162804 | 23 | 193 | 16.1 | 24.1 | 0.00 | 0.00 | 0.00 | 36 | 1008.7 |
| 20260506162307 | 23 | 219 | 16.1 | 27.4 | 0.00 | 0.00 | 0.00 | 36 | 1008.7 |
| 20260506161805 | 22 | 189 | 9.7 | 20.9 | 0.00 | 0.00 | 0.00 | 35 | 1008.5 |
| 20260506161304 | 23 | 192 | 8.0 | 14.5 | 0.00 | 0.00 | 0.00 | 31 | 1008.7 |
| 20260506160804 | 24 | 195 | 6.4 | 14.5 | 0.00 | 0.00 | 0.00 | 28 | 1008.5 |
| 20260506155804 | 23 | 273 | 3.2 | 11.3 | 0.00 | 0.00 | 0.00 | 27 | 1008.8 |
| 20260506154804 | 23 | 140 | 4.8 | 8.0 | 0.00 | 0.00 | 0.00 | 28 | 1008.7 |
| 20260506154304 | 22 | 28 | 1.6 | 11.3 | 0.00 | 0.00 | 0.00 | 27 | 1008.8 |
| 20260506153804 | 23 | 266 | 3.2 | 14.5 | 0.00 | 0.00 | 0.00 | 28 | 1008.7 |
| 20260506153303 | 23 | 279 | 11.3 | 16.1 | 0.00 | 0.00 | 0.00 | 27 | 1009.0 |
| 20260506152804 | 23 | 236 | 9.7 | 14.5 | 0.00 | 0.00 | 0.00 | 27 | 1008.9 |
| 20260506152306 | 24 | 292 | 12.9 | 16.1 | 0.00 | 0.00 | 0.00 | 27 | 1009.0 |
| 20260506151804 | 23 | 245 | 4.8 | 9.7 | 0.00 | 0.00 | 0.00 | 28 | 1009.2 |
| 20260506151304 | 23 | 251 | 4.8 | 16.1 | 0.00 | 0.00 | 0.00 | 28 | 1009.2 |
| 20260506150804 | 23 | 177 | 8.0 | 16.1 | 0.00 | 0.00 | 0.00 | 29 | 1009.3 |
| 20260506150305 | 23 | 268 | 11.3 | 16.1 | 0.00 | 0.00 | 0.00 | 29 | 1009.5 |
| 20260506145804 | 23 | 212 | 8.0 | 14.5 | 0.00 | 0.00 | 0.00 | 30 | 1009.5 |
| 20260506145306 | 23 | 263 | 6.4 | 16.1 | 0.00 | 0.00 | 0.00 | 29 | 1009.5 |
| 20260506144804 | 23 | 243 | 9.7 | 14.5 | 0.00 | 0.00 | 0.00 | 30 | 1009.7 |